Visibility
0.7 6.1 15.0 13.2 6.4 5.6 3.7 4.4 5.4 8.7 14.3 14.0 15.0 3.3 4.6 11.3 11.1 6.0 7.7 7.1 4.0 6.8 11.3 15.0 15.0 15.0 15.0 15.0 15.0 15.0 15.0 15.0 15.0 15.0 15.0 15.0 15.0 15.0
15.0 15.0 15.0 15.0 15.0 15.0 15.0 12.6 10.2 3.9 2.4 12.9 9.0 8.4 15.0 6.1 7.3 5.7 9.0 13.4 15.0 15.0 15.0 15.0 15.0 15.0 15.0 15.0 15.0 15.0 15.0 15.0 15.0 15.0 15.0 15.0 15.0 15.0
15.0 15.0 15.0 15.0 15.0 15.0 15.0 15.0 15.0 13.1 3.1 0.4 15.0 7.9 15.0 15.0 15.0 15.0 15.0 15.0 15.0 15.0 15.0 15.0 15.0 15.0 15.0 15.0 15.0 15.0 15.0 15.0 15.0 15.0 15.0 12.9 15.0 15.0
15.0 15.0 15.0 15.0 15.0 15.0 15.0 15.0 15.0 15.0 8.1 14.2 14.3 15.0 15.0 15.0 15.0 15.0 15.0 15.0 15.0 15.0 15.0 15.0 15.0 15.0 15.0 15.0 15.0 15.0 15.0 15.0 13.5 15.0 15.0 15.0 15.0 15.0
15.0 15.0 15.0 15.0 11.9 2.6 1.2 5.5 15.0 14.6 15.0 14.1 15.0 15.0 15.0 15.0 15.0 15.0 15.0 15.0 15.0 15.0 15.0 15.0 15.0 15.0 15.0 15.0 15.0 15.0 15.0 15.0 15.0 15.0 15.0 15.0 14.5 15.0
15.0 15.0 15.0 15.0 15.0 15.0 15.0 15.0 15.0 15.0 15.0 3.9 14.2 15.0 15.0 15.0 15.0 15.0 15.0 15.0 15.0 15.0 15.0 15.0 15.0 15.0 15.0 15.0 15.0 15.0 15.0 15.0 15.0 15.0 15.0 15.0 15.0 15.0
0.3 15.0 15.0 15.0 15.0 15.0 15.0 0.9 15.0 15.0 4.3 14.8 15.0 15.0 15.0 15.0 15.0 15.0 15.0 15.0 15.0 15.0 15.0 15.0 15.0 15.0 15.0 15.0 15.0 15.0 15.0 15.0 15.0 15.0 15.0 15.0 15.0 15.0
15.0 0.1 0.0 0.0 0.6 12.0 0.1 0.2 14.9 3.7 2.6 15.0 15.0 15.0 15.0 15.0 15.0 15.0 15.0 15.0 15.0 15.0 15.0 15.0 15.0 15.0 15.0 15.0 15.0 15.0 15.0 15.0 15.0 15.0 15.0 15.0 15.0 15.0
1.6 5.5 15.0 15.0 15.0 15.0 15.0 15.0 15.0 15.0 15.0 15.0 15.0 15.0 15.0 15.0 15.0 15.0 15.0 15.0 15.0 15.0 15.0 15.0 15.0 15.0 15.0 15.0 15.0 15.0 15.0 15.0 15.0 15.0 15.0 15.0 15.0 15.0
15.0 15.0 15.0 15.0 15.0 15.0 15.0 15.0 15.0 15.0 15.0 15.0 15.0 15.0 15.0 15.0 15.0 15.0 15.0 15.0 15.0 15.0 15.0 8.5 15.0 15.0 15.0 15.0 15.0 15.0 15.0 15.0 15.0 15.0 15.0 15.0 15.0 15.0
15.0 15.0 15.0 15.0 15.0 15.0 15.0 15.0 15.0 15.0 15.0 15.0 15.0 15.0 15.0 15.0 15.0 15.0 15.0 15.0 10.3 15.0 15.0 14.8 15.0 15.0 15.0 15.0 15.0 15.0 15.0 15.0 15.0 15.0 15.0 15.0 15.0 15.0
15.0 15.0 15.0 15.0 15.0 15.0 15.0 15.0 15.0 15.0 15.0 15.0 15.0 15.0 15.0 15.0 15.0 15.0 15.0 15.0 5.0 6.3 15.0 2.0 3.4 1.8 12.6 15.0 15.0 15.0 15.0 15.0 15.0 15.0 15.0 15.0 15.0 15.0
15.0 15.0 15.0 15.0 15.0 15.0 15.0 15.0 15.0 15.0 15.0 15.0 15.0 15.0 15.0 15.0 15.0 15.0 15.0 9.7 3.0 11.2 15.0 0.5 1.1 8.6 0.5 8.5 15.0 15.0 15.0 15.0 15.0 15.0 15.0 15.0 15.0 15.0
15.0 15.0 15.0 15.0 15.0 15.0 15.0 15.0 15.0 15.0 15.0 15.0 15.0 15.0 13.1 15.0 15.0 15.0 15.0 15.0 15.0 10.3 15.0 14.3 0.2 0.6 0.5 1.6 8.1 15.0 15.0 15.0 15.0 15.0 15.0 15.0 15.0 15.0
15.0 15.0 15.0 15.0 15.0 15.0 15.0 15.0 15.0 15.0 15.0 15.0 15.0 15.0 6.9 12.2 15.0 15.0 15.0 15.0 15.0 15.0 15.0 15.0 9.7 2.4 0.2 0.3 1.2 15.0 15.0 15.0 15.0 15.0 15.0 15.0 15.0 15.0
15.0 15.0 15.0 15.0 15.0 15.0 15.0 15.0 15.0 15.0 15.0 15.0 15.0 10.1 15.0 15.0 15.0 15.0 11.1 14.0 2.3 14.4 15.0 15.0 15.0 9.6 0.7 1.5 3.6 2.1 15.0 0.3 15.0 15.0 15.0 15.0 15.0 15.0
15.0 15.0 15.0 15.0 15.0 15.0 15.0 15.0 15.0 15.0 15.0 13.9 14.8 12.7 12.2 15.0 14.6 15.0 13.4 4.4 0.6 3.3 11.0 15.0 15.0 15.0 15.0 15.0 1.7 15.0 15.0 15.0 15.0 15.0 9.7 2.7 15.0 15.0
15.0 15.0 15.0 15.0 15.0 15.0 15.0 15.0 15.0 15.0 15.0 14.7 6.6 3.3 1.8 2.5 7.3 12.7 10.9 2.0 1.2 3.5 1.8 15.0 15.0 5.8 14.2 15.0 13.8 14.4 15.0 15.0 15.0 15.0 15.0 0.5 4.0 15.0
15.0 15.0 15.0 15.0 15.0 12.1 6.7 13.4 15.0 15.0 10.9 4.0 1.7 1.6 2.0 2.7 4.1 3.1 3.2 1.1 2.1 11.1 14.7 15.0 2.5 0.2 0.2 1.3 15.0 15.0 15.0 15.0 15.0 15.0 15.0 15.0 5.9 15.0
15.0 15.0 15.0 15.0 15.0 14.2 15.0 15.0 14.1 5.5 3.3 3.1 2.2 1.5 1.0 0.7 1.0 3.1 3.8 0.6 1.6 9.8 1.2 15.0 15.0 12.9 0.2 0.5 0.1 12.7 15.0 15.0 15.0 14.1 15.0 15.0 15.0 15.0
15.0 15.0 15.0 15.0 15.0 10.1 15.0 15.0 2.9 2.1 1.4 0.7 3.3 4.4 4.8 0.5 1.2 2.2 1.1 12.1 2.1 0.8 0.8 14.6 15.0 15.0 13.6 8.3 0.4 14.2 15.0 15.0 15.0 15.0 15.0 0.2 0.6 15.0
15.0 15.0 15.0 15.0 15.0 5.1 14.5 15.0 2.3 3.9 3.4 2.2 2.8 2.2 3.2 1.3 0.9 1.2 1.4 0.6 2.3 0.8 1.0 15.0 15.0 15.0 3.8 2.8 0.4 1.9 15.0 15.0 15.0 15.0 15.0 11.8 0.1 0.1
15.0 15.0 15.0 15.0 14.7 4.1 4.1 15.0 13.2 6.6 6.6 3.0 0.8 1.5 0.8 0.5 3.6 1.0 1.1 1.3 0.3 0.6 1.6 1.7 15.0 15.0 8.4 1.6 1.6 1.4 14.8 15.0 15.0 15.0 15.0 15.0 15.0 15.0